Probability
20 27 38 43 43 41 37 30 21 12 7 6 6 4 2 1 2 5 6 2 0 0 0 0 0 0 0 0 0 0 1 2 3 4 4 6 9 10
16 21 28 35 40 42 42 38 30 19 14 16 17 12 6 3 4 6 6 2 0 0 0 0 0 0 0 0 0 0 0 1 1 2 3 4 5 5
10 12 16 24 31 36 41 45 42 32 25 28 30 23 13 6 6 7 5 2 0 0 0 0 0 0 0 0 0 0 0 0 0 0 1 1 1 1
4 6 10 14 20 26 33 40 44 39 34 36 37 30 18 10 8 7 4 2 0 0 0 0 0 0 0 0 0 0 0 0 0 0 0 0 0 0
2 4 6 9 13 19 25 31 35 37 41 42 39 33 23 15 9 5 3 2 0 0 0 0 0 0 0 0 0 0 0 0 0 0 0 0 0 0
0 1 3 5 8 12 18 24 28 34 40 42 39 33 25 15 9 3 1 1 1 0 0 0 0 0 0 0 0 0 0 0 0 0 0 0 0 0
0 0 1 2 3 5 9 15 22 28 34 38 38 33 25 15 9 4 2 2 1 0 0 0 0 0 0 0 0 0 0 0 0 0 0 0 0 0
0 0 0 0 1 1 2 5 10 16 24 32 37 35 28 20 13 8 4 3 1 0 0 0 0 0 0 0 0 0 0 0 0 0 0 0 0 0
0 0 0 0 0 0 0 0 2 5 11 21 30 34 32 27 22 14 8 4 2 1 0 0 0 0 0 0 0 0 0 0 0 0 0 0 0 0
0 0 0 0 0 0 0 1 3 2 2 7 16 22 23 26 27 21 13 9 5 1 0 0 0 0 0 0 0 0 0 0 0 0 0 0 0 0
0 0 0 0 0 0 0 1 4 5 2 1 4 7 8 13 19 21 16 11 5 1 0 0 0 0 0 0 0 0 0 0 0 0 0 0 0 0
0 0 0 0 0 0 0 1 3 5 3 1 2 2 3 5 9 14 14 9 3 0 0 0 0 0 0 0 0 0 0 0 0 0 0 0 0 0
0 0 0 0 0 0 0 0 1 3 4 4 5 5 6 6 7 9 10 8 4 1 0 0 0 0 0 0 0 0 0 0 0 0 0 0 0 0
0 0 0 0 0 0 0 0 0 2 4 5 6 6 7 8 8 7 8 8 6 2 0 0 0 0 0 0 0 0 0 0 0 0 0 0 0 0
0 0 0 0 0 0 0 0 0 2 4 4 5 6 6 6 6 6 6 7 6 3 0 0 0 0 0 0 0 0 0 0 0 0 0 0 0 0
0 0 0 0 0 0 0 0 0 2 2 2 3 4 5 4 4 4 4 4 4 3 1 0 0 0 0 0 0 0 0 0 0 0 0 0 0 0
0 0 0 0 0 0 0 0 0 1 1 2 1 2 3 3 3 3 3 2 2 1 0 0 0 0 0 0 0 0 0 0 0 0 0 0 0 0
0 0 0 0 0 0 0 0 0 0 1 2 1 1 2 2 2 3 4 3 1 0 0 0 0 0 0 0 0 0 0 0 0 0 0 0 0 0
0 0 0 0 0 0 0 0 0 1 2 2 1 1 2 2 2 3 4 2 1 0 0 0 0 0 0 0 0 0 0 0 0 0 0 0 0 0
0 0 0 0 0 0 0 0 0 1 2 2 1 2 3 2 1 1 1 1 0 0 0 0 0 0 0 0 0 0 0 0 0 0 0 0 0 0
0 0 0 0 0 0 0 0 0 2 2 1 1 2 2 1 0 0 0 0 0 0 0 0 0 0 0 0 0 0 0 0 0 0 0 0 0 0
0 0 0 0 0 0 0 0 0 1 1 1 0 0 0 0 0 0 0 0 0 0 0 0 0 0 0 0 0 0 0 0 0 0 0 0 0 0
0 0 0 0 0 0 0 0 0 0 1 0 0 0 0 0 0 0 0 0 0 0 0 0 0 0 0 0 0 0 0 0 0 0 0 0 0 0
Wind_Speed
8 8 8 6 7 7 7 7 7 7 6 6 5 4 3 2 3 3 3 6 5 4 3 3 3 3 3 3 3 4 6 7 8 9 9 11 12 14
6 7 7 6 6 6 7 7 7 8 7 4 4 5 4 3 3 2 4 7 5 5 4 4 3 3 2 2 2 2 3 5 6 7 8 9 10 11
7 7 7 7 6 6 6 7 7 7 8 5 4 4 5 4 4 4 4 4 5 7 6 6 5 5 4 3 1 0 1 3 4 5 6 7 8 9
9 8 8 7 8 7 6 7 7 7 8 7 5 5 6 6 5 4 4 4 5 8 8 8 7 7 6 5 4 3 2 1 1 3 4 5 6 6
9 9 9 8 9 8 8 7 7 7 7 7 6 5 4 5 6 5 5 4 5 7 9 9 8 8 8 7 6 5 5 4 4 4 4 5 5 6
10 10 10 10 10 9 8 9 8 7 7 7 7 6 5 6 6 6 5 5 5 5 6 7 9 9 9 8 8 8 7 7 7 8 8 9 9 10
12 11 11 10 8 7 7 8 8 8 8 8 8 7 7 7 8 7 6 6 5 5 5 5 5 5 6 7 9 9 9 9 9 10 11 12 12 12
12 12 12 11 11 11 11 10 9 9 9 9 9 9 10 10 8 8 8 8 5 5 5 4 4 4 4 5 8 9 9 10 11 12 12 13 13 14
13 12 11 11 11 12 13 14 14 14 13 10 10 10 10 11 11 12 10 10 6 8 7 5 4 5 5 7 9 9 10 10 11 12 13 14 14 14
14 14 13 12 11 10 11 12 12 13 13 13 11 10 9 8 11 11 10 8 7 7 7 6 5 5 6 6 9 9 9 10 11 13 14 14 14 14
14 14 14 14 11 9 11 12 12 11 11 11 10 10 8 7 8 7 10 10 8 7 6 6 7 6 6 6 8 10 10 10 11 12 13 14 15 14
12 13 13 13 10 10 12 13 13 12 10 10 10 10 11 11 12 11 11 11 9 8 8 7 9 8 6 6 7 8 8 10 10 10 10 10 8 7
10 10 10 14 13 11 12 12 11 9 9 9 9 9 9 10 11 11 10 10 11 8 11 9 10 8 7 8 6 7 8 9 9 8 7 4 2 1
10 9 6 11 12 12 11 11 9 8 9 8 8 8 9 10 10 11 10 8 7 8 13 11 9 8 9 9 8 8 8 8 9 8 8 7 4 7
9 6 2 7 9 10 13 11 10 10 10 9 9 8 8 9 9 8 8 6 6 8 11 9 8 8 9 9 10 10 9 9 8 8 8 8 7 7
11 8 8 7 8 8 7 11 11 10 9 9 8 7 7 8 9 9 9 9 8 7 8 8 9 11 8 9 10 10 9 9 9 9 8 8 7 7
7 8 8 9 9 9 9 9 9 10 10 9 8 8 8 9 9 10 10 10 9 9 9 7 7 6 6 8 10 10 9 9 9 9 8 8 7 7
5 8 8 9 9 9 9 9 9 9 10 9 9 9 9 10 10 10 11 11 11 11 11 10 10 9 7 5 5 10 9 9 9 9 9 8 8 8
8 8 8 8 9 9 9 9 9 9 9 9 9 10 9 9 10 11 11 10 11 11 11 11 11 11 11 10 7 5 8 9 10 10 9 7 7 8
8 8 8 8 8 8 8 8 7 8 9 9 9 9 10 10 11 12 11 12 11 11 11 11 11 10 10 9 9 9 8 9 10 10 9 8 5 6
7 7 7 6 6 7 7 7 7 7 9 8 8 9 10 11 11 11 11 14 12 11 12 11 8 7 5 6 9 10 9 4 1 6 9 9 8 9
5 5 5 5 5 5 6 6 7 7 9 8 8 9 9 10 12 13 12 13 11 11 11 9 9 8 7 8 9 11 11 9 4 2 1 2 5 7
3 3 3 3 4 4 4 6 7 7 7 8 8 9 10 10 11 11 12 12 12 12 12 11 9 8 7 8 8 9 12 12 10 9 9 7 5 3
Wind_Direction
249 244 243 245 244 243 243 242 242 242 227 194 197 171 175 154 138 206 142 118 120 124 135 149 161 175 193 211 228 231 227 227 224 221 223 225 224 225
253 253 248 245 243 240 239 241 243 249 249 208 190 175 166 156 152 152 112 121 114 114 113 115 121 131 153 174 195 223 224 223 219 219 221 222 221 222
252 247 246 251 249 244 238 237 238 239 238 228 193 169 177 176 154 146 149 151 118 105 104 101 99 97 94 95 99 111 223 225 222 219 220 219 215 214
247 249 248 247 241 246 244 239 237 236 237 232 209 189 189 174 161 161 154 133 114 102 99 94 91 90 86 80 77 76 72 114 207 208 204 198 190 184
241 246 249 249 246 242 239 240 238 236 235 231 221 198 185 172 161 158 140 128 123 122 112 102 91 87 83 79 74 72 74 78 88 106 120 130 136 135
240 241 244 245 244 244 241 237 238 237 233 232 220 203 188 180 173 166 156 156 143 132 104 102 102 94 86 82 79 75 75 80 83 89 95 97 101 105
242 240 240 240 248 251 256 247 237 233 230 225 218 207 192 184 187 181 168 147 133 144 138 134 134 123 110 100 89 82 81 82 84 87 89 90 91 93
243 243 242 230 225 224 239 254 260 250 243 232 222 214 202 195 189 183 166 162 161 163 151 130 128 114 102 91 84 87 88 88 89 91 92 92 91 91
243 242 244 238 222 231 224 223 235 242 247 251 244 230 212 198 190 187 183 182 165 157 154 129 126 110 99 89 91 92 93 95 97 97 96 95 93 92
240 240 240 245 238 234 241 238 234 229 225 229 238 244 237 214 199 194 181 159 134 150 159 136 137 119 110 105 98 97 99 101 103 104 102 100 97 93
238 238 238 239 229 214 238 245 244 240 229 230 237 246 249 220 197 185 170 159 153 157 170 142 141 130 123 118 110 103 100 102 107 111 113 114 115 110
232 234 231 236 228 202 232 241 241 237 235 220 216 223 225 210 195 194 182 173 161 159 173 157 154 152 136 132 136 139 122 109 108 115 124 134 149 134
236 231 224 198 211 211 228 245 247 249 238 230 221 213 208 202 198 197 195 186 175 166 165 167 166 171 145 143 149 152 147 145 142 134 133 124 63 91
241 244 230 175 194 208 221 237 240 243 240 231 221 209 202 197 194 192 192 196 190 168 164 171 168 171 151 149 151 159 160 158 155 152 151 144 104 72
245 248 208 166 190 212 223 226 224 226 227 226 221 212 202 191 185 179 175 174 161 156 160 174 167 164 163 157 154 160 162 165 165 160 159 165 162 156
236 220 196 198 228 250 220 209 221 223 219 221 219 209 194 185 181 173 166 162 151 144 154 170 167 163 165 156 154 160 167 167 170 170 169 168 172 173
221 225 222 214 214 219 222 221 216 211 212 217 213 201 192 187 180 172 166 163 159 155 154 157 157 161 157 156 161 166 169 167 168 166 175 175 177 178
228 228 226 224 223 221 220 216 212 210 206 203 205 197 191 186 176 170 169 168 161 158 157 157 155 151 152 151 166 168 170 169 164 170 189 184 177 178
223 233 233 232 229 225 223 219 212 205 200 199 197 192 188 183 174 169 169 167 161 158 157 160 164 164 166 163 168 202 175 167 168 176 192 193 184 176
229 233 233 233 229 227 224 219 211 201 197 197 193 190 185 180 173 168 166 163 159 155 156 164 172 177 176 165 159 172 195 179 177 181 185 191 162 122
225 230 231 233 228 220 216 211 204 201 197 190 189 187 180 173 168 164 160 158 158 157 161 165 165 166 160 150 154 162 169 165 158 187 185 186 183 185
234 231 231 228 219 208 203 197 195 194 190 188 182 176 169 165 161 159 158 159 160 158 157 148 150 165 171 172 166 160 165 168 152 51 296 247 214 210
240 227 208 203 194 188 187 183 181 180 175 168 161 160 158 156 155 154 154 156 155 151 148 149 157 170 175 176 170 164 165 174 185 192 208 203 184 149